weather.gov     
National Weather Service

Regional Weather Roundup
NWS Homepage
This page is being discontinued on March 12, 2014.
The same data is available at this site. Please update your bookmarks.
Thank you, and we apologize for the inconvenience.
Please send an email to SR-SRH.Webmaster@noaa.gov with any concerns.


Current Version
Previous Version:    01  02  03  04  05  06  07  08  09  10  11  12  13  14  15  16  17  18  19  20  21  22  23  24  25  26  27  
[Printable]
883
ASUS41 KPHI 231010
RWRPHI

REGIONAL WEATHER ROUNDUP
NATIONAL WEATHER SERVICE MOUNT HOLLY NJ
600 AM EDT THU OCT 23 2014

NOTE:  "FAIR" INDICATES FEW OR NO CLOUDS BELOW 12,000 FEET WITH NO
SIGNIFICANT WEATHER AND/OR OBSTRUCTIONS TO VISIBILITY.

 * = STATION DOES NOT REPORT PRECIPITATION (E.G. RAIN, SNOW, ETC.)
        OR FOG.

NJZ015>026-231100-
SOUTHERN NEW JERSEY

CITY           SKY/WX    TMP DP  RH WIND       PRES   REMARKS
POMONA         CLOUDY    51  49  92 NW15      29.71R
RIO GRANDE*    CLOUDY    54  45  71 NW10G21   29.74R
MILLVILLE      CLOUDY    52  46  80 NW13G22   29.74R
WRIGHTSTOWN    LGT RAIN  52  48  87 NW14      29.71R
MOUNT HOLLY    CLOUDY    53  46  77 NW9       29.74R
TRENTON        LGT RAIN  51  46  83 N13       29.74R

$$
NJZ001>014-231100-
NORTHERN NEW JERSEY

CITY           SKY/WX    TMP DP  RH WIND       PRES   REMARKS
SUSSEX         LGT RAIN  53  46  77 N5        29.76S
ANDOVER*         N/A     49  46  90 N9        29.76S
MORRISTOWN     RAIN      54  48  82 N6        29.73F
NEWARK         LGT RAIN  51  49  92 N14G22    29.72R
TETERBORO      CLOUDY    52  46  80 N9        29.70S
CALDWELL       CLOUDY    52  46  80 MISG      29.73S
SOMERVILLE     LGT RAIN  52  47  83 NW6       29.73R
ALLAIRE*       CLOUDY    52  45  76 NW13G20   29.70R
TOMS RIVER*    CLOUDY    52  48  87 N6        29.70R

$$
PAZ043-044-047-054-055-060>062-066>071-231100-
EASTERN PENNSYLVANIA

CITY           SKY/WX    TMP DP  RH WIND       PRES   REMARKS
PHILADELPHIA   CLOUDY    53  45  74 NW17      29.77R
NORTH PHILA    LGT RAIN  54  45  71 N15G25    29.77R
BLUE BELL      CLOUDY    52  46  82 NW7       29.76S
DOYLESTOWN     LGT RAIN  49  46  90 N10       29.76R
QUAKERTOWN*    CLOUDY    50  45  81 N10G16    29.79R
POTTSTOWN      CLOUDY    51  43  74 NW13      29.80S
LANCASTER      CLOUDY    51  42  71 N10G18    29.84R
COATESVILLE    LGT RAIN  50  45  81 NW14G22   29.81S
READING        CLOUDY    52  43  71 NW14      29.82F
ALLENTOWN      CLOUDY    51  43  74 N14G22    29.80R
MOUNT POCONO   LGT RAIN  44  41  89 NW18G25   29.80S
HAZLETON       DRIZZLE   45  43  93 NW13G23   29.87S
WILKES BARRE   LGT RAIN  46  42  86 N8        29.86S

$$
DEZALL-MDZ008-012-015-019-020-231100-
DELAWARE AND EASTERN MARYLAND

CITY           SKY/WX    TMP DP  RH WIND       PRES   REMARKS
WILMINGTON     CLOUDY    52  44  74 NW14G25   29.79R
DOVER          CLOUDY    52  46  79 NW18G26   29.75R
GEORGETOWN     CLOUDY    53  45  74 NW8G20    29.78R
EASTON         CLOUDY    55  48  76 N15G25    29.85S
PATUXENT       CLOUDY    53  44  71 NW18G29   29.84R
OCEAN CITY     CLOUDY    51  47  86 NW10G20   29.76R
WALLOPS ISLAND CLOUDY    53  47  79 NW14G23   29.79S
CAMBRIDGE      CLOUDY    55  46  71 NW15G25   29.81S VSB<1/4
SALISBURY      CLOUDY    55  46  71 NW15G23   29.79R

$$
PAZ001-021-NYZ056-072-MDZ011-DCZ001-231100-
OTHER NEARBY LOCATIONS

CITY           SKY/WX    TMP DP  RH WIND       PRES   REMARKS
HARRISBURG     CLOUDY    53  41  63 NW15G23   29.88R
STATE COLLEGE  CLOUDY    48  41  76 N9        29.98S
WILLIAMSPORT   MOCLDY    51  40  65 NW12G18   29.92S
BINGHAMTON     CLOUDY    43  39  86 N14       29.90F
NEW YORK CITY  CLOUDY    51  47  86 VRB6      29.73S
BALTIMORE      MOCLDY    52  43  71 NW10      29.86R
WASHINGTON DC  CLOUDY    55  41  59 NW17G25   29.89S

$$




U.S. Dept. of Commerce
NOAA National Weather Service
1325 East West Highway
Silver Spring, MD 20910
E-mail: w-nws.webmaster@noaa.gov
Page last modified: May 16, 2007
NATIONAL WEATHER SERVICE: for Safety, for Work, for Fun - FOR LIFE